FW1417 Weather Reports


Display with metric or nautical units.
time (UTC)temp
F
wind
direction
speed
MPH
gust
MPH
rain 1hr
in
rain 24hr
in
rain mn
in
humidity
%
barometer
mb
20210302103737 23 327 9.0 20.0 0.00 0.01 0.00 39 1022.6
20210302103621 23 280 8.0 18.0 0.00 0.01 0.00 40 1022.6
20210302102958 23 17 9.0 26.0 0.00 0.01 0.00 39 1022.3
20210302102207 23 312 10.0 26.0 0.00 0.01 0.00 38 1022.3
20210302101707 23 39 13.0 26.0 0.00 0.01 0.00 38 1022.1
20210302101210 23 308 12.0 23.0 0.00 0.01 0.00 39 1022.2
20210302100721 23 304 6.0 20.0 0.00 0.01 0.00 41 1022.0
20210302100213 23 293 8.0 17.0 0.00 0.01 0.00 42 1021.9
20210302095707 23 233 8.0 20.0 0.00 0.01 0.00 42 1021.8
20210302095349 23 355 10.0 26.0 0.00 0.01 0.00 41 1021.8
20210302094716 23 349 6.0 26.0 0.00 0.01 0.00 40 1021.8
20210302094208 23 314 9.0 23.0 0.00 0.01 0.00 41 1021.6
20210302093731 24 5 8.0 21.0 0.00 0.01 0.00 42 1021.5
20210302093635 24 282 9.0 20.0 0.00 0.01 0.00 42 1021.5
20210302093139 24 291 6.0 20.0 0.00 0.01 0.00 44 1021.3
20210302092209 24 257 11.0 21.0 0.00 0.01 0.00 44 1021.3
20210302091717 24 325 10.0 21.0 0.00 0.01 0.00 44 1021.3
20210302091225 24 291 7.0 20.0 0.00 0.01 0.00 44 1021.2
20210302091114 24 270 12.0 25.0 0.00 0.01 0.00 44 1020.9
20210302090841 24 316 10.0 25.0 0.00 0.01 0.00 45 1020.9
20210302085843 24 259 8.0 28.0 0.00 0.01 0.00 44 1020.8
20210302085209 25 296 12.0 28.0 0.00 0.01 0.00 43 1020.8
20210302084707 25 277 7.0 25.0 0.00 0.01 0.00 44 1020.5
20210302084208 25 247 8.0 22.0 0.00 0.01 0.00 46 1020.6
20210302083845 25 315 5.0 17.0 0.00 0.01 0.00 45 1020.4
20210302083207 25 241 6.0 24.0 0.00 0.01 0.00 44 1020.2
20210302082708 25 337 8.0 24.0 0.00 0.01 0.00 42 1020.1
20210302082601 25 320 7.0 20.0 0.00 0.01 0.00 42 1019.9
20210302081910 26 325 7.0 21.0 0.00 0.01 0.00 41 1019.8
20210302081208 26 232 9.0 21.0 0.00 0.01 0.00 40 1019.7
20210302080707 26 289 9.0 21.0 0.00 0.01 0.00 40 1019.8
20210302080208 26 246 8.0 20.0 0.00 0.02 0.00 41 1019.7
20210302075902 26 278 8.0 22.0 0.00 0.02 0.00 40 1019.6
20210302075300 26 330 8.0 22.0 0.00 0.03 0.00 39 1019.4
20210302074716 26 338 11.0 23.0 0.00 0.03 0.00 38 1019.3
20210302074208 27 326 9.0 23.0 0.00 0.04 0.00 38 1019.3
20210302073706 27 278 9.0 20.0 0.00 0.04 0.00 38 1019.1
20210302073455 27 258 9.0 17.0 0.00 0.04 0.00 38 1018.9
20210302072900 27 229 7.0 26.0 0.00 0.05 0.00 38 1018.8
20210302072208 27 338 8.0 26.0 0.00 0.05 0.00 37 1018.7
20210302071712 27 297 10.0 26.0 0.00 0.05 0.00 37 1018.6
20210302071206 27 262 13.0 26.0 0.00 0.05 0.00 36 1018.7
20210302070711 27 331 10.0 26.0 0.00 0.05 0.00 37 1018.6
20210302070209 28 350 10.0 20.0 0.00 0.05 0.00 37 1018.5
20210302065833 28 321 7.0 18.0 0.00 0.05 0.00 37 1018.3
20210302065318 28 325 7.0 20.0 0.00 0.05 0.00 38 1018.3
20210302064706 28 282 10.0 20.0 0.00 0.05 0.00 38 1018.2
20210302064206 28 5 7.0 22.0 0.00 0.06 0.00 41 1018.1
20210302063902 28 297 6.0 25.0 0.00 0.06 0.00 41 1018.1
20210302062706 30 304 10.0 25.0 0.00 0.06 0.00 37 1017.3
20210302061527 30 309 9.0 21.0 0.00 0.06 0.00 37 1017.0
20210302060452 30 298 7.0 31.0 0.00 0.06 0.00 36 1017.0
20210302055851 30 298 10.0 31.0 0.00 0.06 0.00 35 1016.7
20210302055519 30 297 13.0 28.0 0.00 0.06 0.00 35 1016.4
20210302054358 30 315 13.0 22.0 0.00 0.06 0.00 38 1016.5
20210302053716 30 330 7.0 20.0 0.00 0.06 0.00 40 1016.1
20210302053438 30 342 7.0 21.0 0.00 0.06 0.00 40 1016.2
20210302052913 31 271 9.0 21.0 0.00 0.06 0.00 40 1016.1
20210302052207 31 335 10.0 23.0 0.00 0.06 0.00 40 1016.1
20210302051707 31 301 12.0 26.0 0.00 0.06 0.00 41 1015.9
20210302051209 31 313 10.0 26.0 0.00 0.06 0.00 43 1015.9
20210302050710 32 293 9.0 20.0 0.00 0.06 0.00 45 1015.7
20210302050211 32 288 6.0 20.0 0.00 0.06 0.00 46 1015.7
20210302045210 32 280 5.0 21.0 0.00 0.06 0.06 44 1015.4
20210302044713 33 332 9.0 31.0 0.00 0.06 0.06 44 1015.2
20210302044207 33 322 10.0 31.0 0.00 0.06 0.06 43 1015.1
20210302043719 33 292 9.0 24.0 0.00 0.06 0.06 41 1015.1
20210302043412 33 299 10.0 24.0 0.00 0.06 0.06 40 1015.0
20210302042859 33 297 10.0 26.0 0.00 0.06 0.06 39 1015.0
20210302042206 34 313 6.0 26.0 0.00 0.06 0.06 39 1014.9
20210302041712 34 294 12.0 26.0 0.00 0.06 0.06 39 1014.7
20210302041209 34 303 8.0 26.0 0.00 0.07 0.06 40 1014.3
20210302040706 34 314 9.0 26.0 0.00 0.07 0.06 40 1014.5
20210302040207 35 303 8.0 26.0 0.00 0.07 0.06 41 1014.5
20210302035706 35 292 13.0 26.0 0.00 0.07 0.06 43 1014.3
20210302035209 36 9 13.0 25.0 0.00 0.08 0.06 44 1014.2
20210302034707 36 324 7.0 26.0 0.00 0.08 0.06 41 1013.9
20210302034206 36 308 11.0 26.0 0.00 0.08 0.06 39 1014.0
20210302033707 36 304 10.0 24.0 0.00 0.08 0.06 39 1013.9
20210302033327 36 307 13.0 24.0 0.00 0.09 0.06 39 1014.0
20210302032740 36 336 9.0 23.0 0.00 0.09 0.06 44 1013.7
20210302032209 37 323 12.0 24.0 0.00 0.09 0.06 46 1013.6
20210302031709 37 308 9.0 24.0 0.00 0.09 0.06 46 1013.5
20210302031206 37 335 9.0 23.0 0.00 0.09 0.06 46 1013.4
20210302030707 38 345 13.0 23.0 0.00 0.09 0.06 45 1013.4
20210302030208 38 5 12.0 23.0 0.00 0.09 0.06 43 1013.3
20210302025735 38 283 9.0 20.0 0.00 0.09 0.06 42 1013.1
20210302025215 38 295 6.0 18.0 0.00 0.09 0.06 44 1013.0
20210302024708 38 296 6.0 18.0 0.00 0.09 0.06 46 1012.9
20210302024206 39 298 11.0 18.0 0.00 0.09 0.06 46 1012.8
20210302023706 39 285 6.0 17.0 0.00 0.09 0.06 46 1012.6
20210302023209 39 341 6.0 17.0 0.00 0.09 0.06 47 1012.6
20210302022748 39 294 8.0 21.0 0.00 0.09 0.06 45 1012.5
20210302022207 39 321 10.0 21.0 0.00 0.10 0.06 45 1012.5
20210302021707 39 283 10.0 21.0 0.00 0.10 0.06 44 1012.3
20210302021209 40 196 9.0 23.0 0.00 0.10 0.06 44 1012.3
20210302020709 40 279 11.0 23.0 0.00 0.10 0.06 44 1012.3
20210302020208 40 248 5.0 24.0 0.00 0.10 0.06 43 1012.4
20210302015707 40 296 7.0 24.0 0.00 0.10 0.06 43 1012.3
20210302015221 40 355 8.0 23.0 0.00 0.10 0.06 43 1012.2
20210302014707 40 333 8.0 26.0 0.00 0.10 0.06 43 1012.2
20210302014209 40 314 10.0 26.0 0.00 0.10 0.06 43 1012.2
20210302013838 40 311 9.0 26.0 0.00 0.10 0.06 43 1012.1
20210302013630 40 309 9.0 26.0 0.00 0.10 0.06 44 1012.0
20210302013243 40 259 8.0 26.0 0.00 0.10 0.06 45 1012.0
20210302012212 40 303 8.0 24.0 0.00 0.10 0.06 46 1011.9
20210302011712 40 239 9.0 22.0 0.00 0.10 0.06 48 1011.9
20210302011206 40 306 8.0 18.0 0.00 0.11 0.06 48 1011.7
20210302010719 40 281 7.0 20.0 0.00 0.11 0.06 48 1011.6
20210302010219 40 277 12.0 20.0 0.00 0.11 0.06 47 1011.5
20210302005717 41 329 7.0 18.0 0.00 0.11 0.06 48 1011.4
20210302005208 41 330 6.0 17.0 0.00 0.12 0.06 48 1011.4
20210302004725 41 296 9.0 17.0 0.00 0.12 0.06 48 1011.2
20210302004210 41 321 7.0 15.0 0.00 0.12 0.06 48 1011.2
20210302003728 41 305 5.0 20.0 0.00 0.12 0.06 49 1011.2
20210302003528 41 337 6.0 20.0 0.00 0.12 0.06 49 1011.0
20210302002953 41 329 7.0 12.0 0.00 0.12 0.06 48 1011.1
20210302002213 41 306 5.0 13.0 0.00 0.12 0.06 49 1011.0
20210302001706 41 301 5.0 14.0 0.00 0.12 0.06 49 1011.0
20210302001210 41 329 5.0 16.0 0.00 0.12 0.06 49 1011.0
20210302000707 41 323 8.0 16.0 0.00 0.12 0.06 48 1010.8
20210302000207 42 344 7.0 15.0 0.00 0.12 0.06 49 1010.8
20210301235706 42 318 7.0 20.0 0.00 0.12 0.06 49 1010.7
20210301235229 42 299 5.0 20.0 0.00 0.12 0.06 48 1010.3
20210301234709 43 347 8.0 20.0 0.00 0.12 0.06 47 1010.1
20210301234209 43 327 7.0 16.0 0.00 0.12 0.06 45 1010.0
20210301233706 43 302 6.0 17.0 0.00 0.12 0.06 44 1009.8
20210301233402 43 311 8.0 17.0 0.00 0.12 0.06 42 1009.6
20210301233043 44 285 6.0 21.0 0.00 0.12 0.06 40 1009.4
20210301232208 44 294 9.0 21.0 0.00 0.12 0.06 39 1009.2
20210301231711 44 293 10.0 18.0 0.00 0.12 0.06 39 1009.0
20210301231212 44 312 10.0 20.0 0.00 0.12 0.06 38 1009.2
20210301230707 45 316 10.0 22.0 0.00 0.12 0.06 37 1009.2
20210301230222 45 13 9.0 22.0 0.00 0.12 0.06 37 1009.1
20210301225725 45 337 12.0 23.0 0.00 0.12 0.06 37 1009.2
20210301225206 45 307 9.0 23.0 0.00 0.12 0.06 37 1009.0
20210301224739 45 301 12.0 23.0 0.00 0.12 0.06 37 1008.9
20210301224210 45 341 9.0 23.0 0.00 0.12 0.06 40 1008.6
20210301223706 46 311 9.0 20.0 0.00 0.12 0.06 40 1008.3
20210301223409 46 343 5.0 20.0 0.00 0.12 0.06 43 1008.2
20210301222913 46 326 6.0 15.0 0.00 0.12 0.06 43 1008.1
20210301222207 46 342 5.0 12.0 0.00 0.12 0.06 44 1007.9
20210301221710 46 313 6.0 16.0 0.00 0.12 0.06 43 1007.9
20210301221206 46 310 7.0 17.0 0.00 0.12 0.06 43 1007.8
20210301220707 46 281 8.0 17.0 0.00 0.12 0.06 45 1007.7
20210301220209 46 314 4.0 12.0 0.00 0.12 0.06 46 1007.9
20210301215709 46 333 6.0 18.0 0.00 0.12 0.06 46 1007.9
20210301215207 46 305 7.0 18.0 0.00 0.13 0.06 46 1007.9
20210301214738 47 343 7.0 26.0 0.00 0.13 0.06 47 1007.6
20210301214222 47 312 6.0 26.0 0.00 0.13 0.06 48 1007.5
20210301213755 47 296 7.0 20.0 0.00 0.13 0.06 50 1007.7
20210301213543 47 340 8.0 18.0 0.00 0.14 0.06 51 1007.5
20210301213127 47 327 7.0 17.0 0.00 0.14 0.06 52 1007.6
20210301212218 47 338 7.0 16.0 0.00 0.14 0.06 55 1007.5
20210301211706 47 349 6.0 15.0 0.00 0.14 0.06 55 1007.2
20210301211206 48 319 8.0 18.0 0.00 0.14 0.06 55 1006.8
20210301210707 48 348 9.0 18.0 0.00 0.15 0.06 55 1006.9
20210301210212 48 271 7.0 18.0 0.00 0.15 0.06 56 1006.9
20210301205738 48 336 7.0 15.0 0.00 0.15 0.06 54 1006.9
20210301205248 48 285 8.0 22.0 0.00 0.15 0.06 54 1006.9
20210301204837 48 282 5.0 22.0 0.00 0.15 0.06 55 1006.9
20210301204220 48 305 6.0 22.0 0.00 0.15 0.06 56 1006.8
20210301203713 48 276 6.0 17.0 0.00 0.16 0.06 56 1006.7
20210301203437 49 252 3.0 13.0 0.00 0.16 0.06 57 1006.4
20210301202829 49 306 5.0 20.0 0.00 0.16 0.06 56 1006.3
20210301202206 49 314 6.0 20.0 0.00 0.17 0.06 55 1005.9
20210301201730 49 289 6.0 20.0 0.00 0.17 0.06 56 1006.0
20210301201206 48 343 6.0 16.0 0.00 0.17 0.06 56 1005.8
20210301200706 48 254 6.0 18.0 0.00 0.18 0.06 57 1005.2
20210301200221 48 21 9.0 25.0 0.00 0.18 0.06 56 1005.6
20210301195706 48 274 7.0 25.0 0.00 0.18 0.06 57 1005.6
20210301195234 48 287 8.0 25.0 0.00 0.18 0.06 57 1005.6
20210301194722 49 312 10.0 18.0 0.00 0.18 0.06 57 1005.7
20210301194205 49 340 6.0 18.0 0.00 0.19 0.06 60 1005.6
20210301193712 49 337 9.0 16.0 0.00 0.19 0.06 61 1005.3
20210301193406 49 333 7.0 15.0 0.00 0.19 0.06 66 1004.8
20210301192724 49 339 7.0 15.0 0.00 0.19 0.06 69 1004.7
20210301192206 49 299 5.0 13.0 0.00 0.19 0.06 71 1004.6
20210301191707 49 267 6.0 14.0 0.00 0.20 0.06 72 1004.6
20210301191206 49 349 8.0 18.0 0.00 0.20 0.06 72 1004.7
20210301190706 49 310 5.0 18.0 0.00 0.20 0.06 73 1004.5
20210301190208 49 309 10.0 18.0 0.00 0.20 0.06 73 1004.4
20210301185716 49 344 7.0 14.0 0.00 0.20 0.06 73 1004.2
20210301185208 49 338 7.0 14.0 0.00 0.20 0.06 73 1004.1
20210301184707 49 284 3.0 13.0 0.00 0.20 0.06 74 1003.9
20210301184206 49 316 6.0 13.0 0.00 0.20 0.06 75 1004.3
20210301183812 49 282 5.0 12.0 0.00 0.20 0.06 76 1004.4
20210301183626 49 288 5.0 12.0 0.00 0.20 0.06 77 1004.4
20210301182912 49 301 5.0 12.0 0.00 0.20 0.06 78 1004.3
20210301182206 48 285 4.0 12.0 0.00 0.20 0.06 79 1004.6
20210301181706 48 271 3.0 12.0 0.00 0.20 0.06 81 1004.7
20210301181206 48 290 5.0 12.0 0.00 0.20 0.06 82 1004.7
20210301180705 47 289 4.0 12.0 0.00 0.20 0.06 83 1004.7
20210301180212 47 267 3.0 9.0 0.00 0.20 0.06 84 1005.0
20210301175706 47 238 4.0 9.0 0.00 0.20 0.06 85 1004.8
20210301175208 47 269 5.0 9.0 0.00 0.20 0.06 85 1005.1
20210301174710 46 258 5.0 9.0 0.00 0.20 0.06 86 1005.1
20210301174207 46 260 3.0 9.0 0.00 0.20 0.06 86 1005.3
20210301173705 46 226 3.0 8.0 0.00 0.20 0.06 87 1005.2
20210301173332 46 243 3.0 10.0 0.00 0.20 0.06 86 1005.4
20210301172817 46 252 5.0 10.0 0.00 0.20 0.06 87 1005.6
20210301172208 46 197 2.0 8.0 0.00 0.20 0.06 87 1005.5
20210301171708 46 238 3.0 9.0 0.00 0.20 0.06 87 1005.6
20210301171205 46 278 5.0 9.0 0.00 0.20 0.06 88 1005.6
20210301170709 46 253 2.0 7.0 0.00 0.20 0.06 88 1005.4
20210301170207 46 238 3.0 5.0 0.00 0.20 0.06 88 1005.4
20210301165706 46 227 2.0 6.0 0.00 0.20 0.06 88 1005.4
20210301165207 46 254 2.0 6.0 0.00 0.20 0.06 88 1005.3
20210301164706 46 226 2.0 9.0 0.00 0.20 0.06 88 1005.6
20210301164206 45 223 3.0 9.0 0.00 0.20 0.06 89 1005.5
20210301163708 45 240 2.0 8.0 0.00 0.20 0.06 89 1005.6
20210301163448 45 262 3.0 8.0 0.00 0.20 0.06 89 1005.6
20210301162856 45 269 3.0 8.0 0.00 0.20 0.06 89 1005.7
20210301162208 45 246 3.0 10.0 0.00 0.20 0.06 90 1005.4
20210301161708 45 246 4.0 10.0 0.00 0.20 0.06 90 1005.4
20210301161209 45 230 4.0 8.0 0.00 0.20 0.06 90 1005.3
20210301160715 45 236 2.0 8.0 0.00 0.20 0.06 90 1005.1
20210301160206 45 259 2.0 6.0 0.00 0.20 0.06 90 1005.1
20210301155710 45 234 3.0 9.0 0.00 0.20 0.06 90 1005.4
20210301155208 44 271 2.0 9.0 0.00 0.20 0.06 90 1005.6
20210301154705 44 266 5.0 9.0 0.00 0.20 0.06 90 1005.5
20210301154208 44 297 2.0 9.0 0.00 0.20 0.06 90 1005.4
20210301153708 44 269 5.0 9.0 0.00 0.20 0.06 91 1005.7
20210301153205 44 292 1.0 8.0 0.00 0.20 0.06 91 1005.1
20210301152838 44 281 3.0 10.0 0.00 0.20 0.06 91 1005.2
20210301152207 44 263 6.0 10.0 0.00 0.20 0.06 91 1005.3
20210301151753 44 297 0.0 9.0 0.00 0.20 0.06 91 1005.0
20210301151206 44 233 2.0 9.0 0.00 0.20 0.06 91 1004.9
20210301150707 44 256 4.0 9.0 0.00 0.20 0.06 91 1005.2
20210301150206 44 292 3.0 9.0 0.00 0.20 0.06 91 1005.6
20210301145709 44 181 3.0 9.0 0.00 0.20 0.06 91 1005.3
20210301145206 44 271 3.0 8.0 0.00 0.20 0.06 91 1005.5
20210301144708 44 242 1.0 6.0 0.00 0.20 0.06 91 1005.4
20210301144205 44 270 2.0 7.0 0.00 0.20 0.06 91 1005.4
20210301143705 44 194 3.0 7.0 0.00 0.20 0.06 91 1005.0
20210301143205 44 199 2.0 7.0 0.00 0.20 0.06 91 1005.2
20210301142823 43 229 1.0 7.0 0.00 0.20 0.06 91 1005.3
20210301142205 43 238 2.0 5.0 0.00 0.20 0.06 91 1005.3
20210301141705 43 223 2.0 5.0 0.00 0.20 0.06 92 1005.2
20210301141208 43 207 1.0 5.0 0.00 0.20 0.06 92 1005.3
20210301140706 43 206 2.0 6.0 0.00 0.20 0.06 92 1005.5
20210301140206 43 200 2.0 6.0 0.00 0.20 0.06 91 1005.7
20210301135706 43 225 3.0 6.0 0.00 0.20 0.06 92 1005.7
20210301135229 43 225 2.0 7.0 0.00 0.20 0.06 92 1005.9
20210301134710 43 244 3.0 7.0 0.00 0.20 0.06 92 1005.8
20210301134425 43 212 2.0 6.0 0.00 0.20 0.06 92 1005.7
20210301133706 43 200 2.0 6.0 0.00 0.20 0.06 92 1005.8
20210301133205 43 206 1.0 7.0 0.00 0.20 0.06 92 1005.3
20210301132709 43 210 2.0 7.0 0.00 0.20 0.06 92 1005.6
20210301132211 43 202 1.0 6.0 0.00 0.20 0.06 92 1005.7
20210301131821 43 212 3.0 5.0 0.00 0.20 0.06 92 1005.9
20210301131205 42 213 2.0 3.0 0.00 0.20 0.06 92 1005.8
20210301130707 42 188 0.0 3.0 0.00 0.20 0.06 92 1005.8
20210301130205 42 188 0.0 3.0 0.00 0.20 0.06 92 1005.8
20210301125712 42 171 1.0 3.0 0.01 0.20 0.06 92 1005.7
20210301125338 42 183 2.0 3.0 0.01 0.20 0.06 92 1005.9
20210301124730 42 331 1.0 3.0 0.01 0.20 0.06 92 1005.8
20210301124206 42 331 0.0 0.0 0.01 0.20 0.06 92 1006.3
20210301123709 42 331 0.0 0.0 0.01 0.20 0.06 92 1006.3
20210301123205 41 331 0.0 0.0 0.01 0.20 0.06 92 1006.5
20210301122906 41 331 0.0 0.0 0.01 0.20 0.06 92 1006.8
20210301122212 41 331 0.0 0.0 0.01 0.20 0.06 92 1006.9
20210301121707 41 331 0.0 0.0 0.01 0.20 0.06 92 1007.0
20210301121208 41 331 0.0 2.0 0.01 0.20 0.06 92 1007.1
20210301120723 41 331 0.0 2.0 0.01 0.20 0.06 92 1007.2
20210301120222 41 331 0.0 2.0 0.01 0.20 0.06 92 1007.3
20210301115739 41 331 0.0 3.0 0.00 0.19 0.05 92 1007.5
20210301115209 41 331 0.0 3.0 0.00 0.19 0.05 92 1007.8
20210301114711 41 331 2.0 3.0 0.00 0.19 0.05 92 1007.9
20210301114204 41 332 2.0 3.0 0.00 0.19 0.05 92 1007.8
20210301113710 41 335 1.0 3.0 0.00 0.19 0.05 92 1007.7
20210301113233 41 339 0.0 2.0 0.00 0.19 0.05 92 1007.6
20210301112936 41 339 1.0 3.0 0.00 0.19 0.05 92 1007.4
20210301112230 41 339 0.0 3.0 0.00 0.19 0.05 92 1007.3
20210301111232 41 339 0.0 3.0 0.00 0.19 0.05 92 1007.5
20210301110725 41 339 1.0 3.0 0.00 0.19 0.05 92 1007.6
20210301110226 41 339 1.0 3.0 0.00 0.19 0.05 92 1007.7
20210301105727 41 339 1.0 3.0 0.00 0.19 0.05 92 1007.8
20210301105349 41 333 0.0 3.0 0.00 0.19 0.05 92 1007.8
20210301104741 41 333 2.0 5.0 0.00 0.19 0.05 92 1007.9
20210301104225 41 335 3.0 5.0 0.00 0.19 0.05 91 1008.1